User: anonymous   Login
Location: Laura�t
(43.9341°N, 0.2497°E)
Time: 21:49:00
(UTC+00:00)
Language:

HJ-1C - Orbit

View from above orbital plane
View from above orbital plane
View from above satellite
View from above satellite

Ground track
Ground track

The orbit data is extracted from the following two-line orbital elements,

1 38997U 12064A   21134.92214301  .00004517  00000-0  10007-3 0  9990
2 38997  97.1198 164.5643 0007492 231.6566 248.8047 15.44244997476901
Epoch (UTC): 14 May 2021 22:07:53
Eccentricity: 0.0007492
inclination: 97.1198°
perigee height: 428 km
apogee height: 439 km
right ascension of ascending node: 164.5643°
argument of perigee: 231.6566°
revolutions per day: 15.44244997
mean anomaly at epoch: 248.8047°
orbit number at epoch: 47690

The dashed part of the orbit path shows where the satellite is in the earth's shadow,  

DLR